Flag for U.S.A. Weather past 2 weeks in Lynchburg, Virginia, U.S.A.

Now
75 °F

Broken clouds.


Feels Like: 77 °F
Forecast: 59 / 78 °F
Wind: 5 mph from Southwest

Location: Lynchburg Regional Airport

Current Time: Sep 16, 2014 at 2:26:57 PM

Latest Report: Sep 16, 2014 at 1:54 PM


Visibility: 10 mi

Pressure: 30.01 "Hg

Humidity: 60%

Dew point: 60 °F

Location of LynchburgLocation

Historic Weather in Lynchburg — Graph

°F

Lynchburg temperature yesterday

Maximum temperature yesterday: 72 °F (at 3:54 PM)
Minimum temperature yesterday: 53 °F (at 6:54 AM)
Average temperature yesterday: 64 °F

Past Weeks' High & Low Weather Summary

 TemperatureHumidityPressure
High90 °F (Sep 2, 3:54 PM)100% (Sep 2, 4:54 AM)30.33 "Hg (Sep 2, 4:54 AM)
Low53 °F (Sep 15, 6:54 AM)50% (Sep 2, 3:54 PM)29.91 "Hg (Sep 11, 4:54 PM)
Average70 °F84%30.10 "Hg
* Reported Sep 1 12:54 PM — Sep 16 12:54 PM, Lynchburg, Weather by CustomWeather, © 2014

Note: Actual official high and low records may vary slightly from our data, if they occured in-between our weather recording intervals... More about our weather records

Advertising

Lynchburg weather history for previous 24 hours

 ConditionsComfort  
Time TempWeatherWind HumidityBarometerVisibility
12:54 PM
Sep 16
74 °FMostly cloudy.No wind60%30.03 "Hg10 mi
11:54 AM73 °FPassing clouds.No wind64%30.04 "Hg10 mi
10:54 AM71 °FPartly sunny.5 mph71%30.05 "Hg10 mi
9:54 AM65 °FPartly sunny.No wind94%30.06 "Hg10 mi
8:54 AM63 °FOvercast.3 mph97%30.06 "Hg10 mi
7:54 AM61 °FClear.No wind100%30.05 "Hg5 mi
6:54 AM60 °FPassing clouds.3 mph100%30.05 "Hg10 mi
5:59 AM58 °FFog.No wind100%30.05 "Hg1 mi
4:54 AM59 °FFog.No wind100%30.03 "Hg3 mi
3:54 AM61 °FClear.3 mph100%30.03 "Hg7 mi
2:54 AM62 °FClear.No wind100%30.03 "Hg8 mi
1:54 AM62 °FClear.6 mph100%30.04 "Hg8 mi
12:54 AM64 °FClear.3 mph100%30.06 "Hg10 mi
11:54 PM
Sep 15
65 °FPassing clouds.8 mph97%30.06 "Hg10 mi
10:54 PM66 °FPassing clouds.8 mph93%30.08 "Hg10 mi
9:54 PM67 °FOvercast.8 mph90%30.10 "Hg10 mi
8:54 PM67 °FMostly cloudy.8 mph90%30.12 "Hg10 mi
7:54 PM68 °FPartly sunny.5 mph84%30.12 "Hg10 mi
6:54 PM69 °FMore clouds than sun.7 mph81%30.12 "Hg10 mi
5:54 PM71 °FPartly sunny.6 mph73%30.13 "Hg10 mi
4:54 PM72 °FPassing clouds.6 mph68%30.13 "Hg10 mi
3:54 PM72 °FScattered clouds.6 mph66%30.14 "Hg10 mi
2:54 PM71 °FPassing clouds.3 mph68%30.16 "Hg10 mi
Weather by CustomWeather, © 2014

See weather overviewHow to use our weather pages